[[{"header":{"parameterUnit":"m.s-1","parameterCategory":1,"la1":30.2991,"la2":30.254,"lo1":-89.0895,"lo2":-89.0444,"dy":0.0017,"dx":0.0017,"nx":28,"ny":28,"refTime":"2025-08-15T09:00:00:Z","depth":0,"parameterNumber":2,"parameterNumberName":"U-component_of_WINDS"},"data":[0,0,0,0,0,0,0,0,0,0,0,0,0,0,0,0,0,0,0,0,0,0,0,0,0,0,0,0,0,0,0,0,0,0,0,0,0,0,0,0,0,0,0,0,0,0,0,0,0,0,0,0,0,0,0,0,0,0,2.1935,2.1938,0,2.2226,2.2229,2.2232,2.2377,2.2377,2.2377,2.2377,2.2664,2.2671,2.2679,0,0,0,0,0,0,0,0,0,0,0,0,0,2.1493,2.15,2.1935,2.1938,2.1942,2.2225,2.2229,2.2233,2.2377,2.2377,2.2377,2.2377,2.2661,2.267,2.2679,0,0,0,0,0,0,0,0,0,0,0,0,0,2.1724,2.1502,2.1934,2.2048,2.2061,2.2225,2.223,2.2234,2.2377,2.2377,2.2377,2.2377,2.2658,2.2669,2.268,2.2749,0,0,2.2715,2.272,0,0,0,0,0,0,0,0,2.171,2.174,2.2028,2.2041,2.2056,2.2266,2.2179,2.2406,2.2377,2.2257,2.2377,2.2377,2.253,2.2552,2.2606,2.2762,2.2774,2.2716,2.2723,2.2728,2.2731,0,0,0,0,0,0,0,2.1694,2.1728,2.205,2.2032,2.2049,2.2081,2.2114,2.2223,2.2389,2.2267,2.2279,2.2312,2.2538,2.2595,2.2614,2.2779,2.2716,2.2726,2.2733,2.2737,2.3006,2.3006,0,0,0,0,0,0,2.1661,2.1714,2.204,2.2058,2.188,2.2089,2.2126,2.2198,2.2388,2.2418,2.2311,2.2317,2.2576,2.2601,2.2625,2.2719,2.2728,2.2738,2.2745,2.3006,2.3006,2.3006,0,0,0,0,0,0,2.1651,2.1689,2.2029,2.1889,2.1935,2.2097,2.2176,2.2204,2.2261,2.2422,2.2451,2.234,2.2577,2.2609,2.2718,2.2731,2.2744,2.2754,2.3005,2.3006,2.3006,2.2906,0,0,0,0,0,0,2.1638,2.1685,2.1715,2.1889,2.1942,2.212,2.2177,2.2209,2.2282,2.2292,2.2456,2.2483,2.2579,2.27,2.2729,2.2746,2.2763,2.3005,2.3006,2.3006,2.2909,2.2903,2.2898,0,0,0,0,0,2.1622,2.1672,2.1716,2.1754,2.1984,2.212,2.215,2.2263,2.2282,2.2312,2.2416,2.2478,2.2724,2.271,2.2744,2.2765,2.3005,2.3005,2.3006,2.2911,2.2904,2.2898,0,0,0,0,0,0,2.149,2.1697,2.1747,2.1856,2.197,2.2144,2.2186,2.2251,2.2359,2.2364,2.2495,2.2531,2.2628,2.2707,2.2688,2.2841,2.287,2.2878,2.2786,2.2781,2.2776,2.2754,2.2772,0,0,0,0,0,2.1474,2.1572,2.1745,2.1824,2.1879,2.2022,2.2086,2.2163,2.2285,2.2333,2.2444,2.2556,2.266,2.2724,2.2828,2.292,2.2958,2.2951,2.2945,2.294,2.2945,2.3001,2.3,2.3009,2.3009,2.3009,0,0,2.1441,2.1566,2.1619,2.1801,2.1899,2.1994,2.2062,2.2159,2.223,2.2346,2.2458,2.2543,2.2677,2.2779,2.2829,2.2848,2.2951,2.2941,2.2936,2.2944,2.3002,2.3001,2.3,2.3009,2.3009,2.3009,0,0,2.143,2.1535,2.1614,2.1711,2.1859,2.1954,2.1972,2.2138,2.2201,2.2316,2.2406,2.249,2.2664,2.2757,2.2827,2.2852,2.2914,2.2882,2.2853,2.2906,2.2905,2.2905,2.2915,2.2917,2.2886,2.2886,2.2886,0,2.1369,2.1521,2.1644,2.1738,2.1815,2.1929,2.2008,2.2095,2.2267,2.2316,2.2335,2.2559,2.2656,2.2782,2.2789,2.2841,2.2865,2.2864,2.2896,2.2897,2.2899,2.291,2.2913,2.2881,2.2881,2.2882,2.2882,0,2.1439,2.1542,2.1586,2.1756,2.1838,2.1922,2.2056,2.2124,2.2194,2.2285,2.2401,2.2523,2.2654,2.2689,2.2756,2.2824,2.2832,2.2871,2.2903,2.2891,2.2904,2.2909,2.2874,2.2876,2.2877,2.2878,0,0,2.1352,2.1591,2.1605,2.1684,2.1857,2.1937,2.2027,2.216,2.2215,2.2329,2.2407,2.2553,2.2592,2.2671,2.275,2.2796,2.281,2.2831,2.2836,2.2823,2.2893,2.2862,2.2865,2.2851,2.2853,2.2854,2.2882,0,2.1366,2.1538,2.1652,2.1777,2.1873,2.1983,2.2061,2.2174,2.2262,2.2354,2.245,2.2552,2.2595,2.2644,2.2695,2.2797,2.2825,2.2796,2.2923,2.2926,2.2888,2.2872,2.284,2.286,2.2887,2.2888,2.2889,0,2.1405,2.1523,2.1658,2.1823,2.1867,2.1936,2.2068,2.2155,2.2284,2.2345,2.2434,2.2515,2.2612,2.2635,2.277,2.2748,2.2806,2.2864,2.2868,2.2884,2.2907,2.2888,2.287,2.2873,2.2898,2.2897,2.2896,0,2.1329,2.152,2.1628,2.1691,2.1885,2.1931,2.2013,2.2143,2.2216,2.2329,2.2378,2.2498,2.2565,2.2655,2.2766,2.2773,2.2889,2.2921,2.2941,2.2938,2.2961,2.2958,2.2952,2.2997,2.2997,2.2996,2.2996,0,2.1333,2.1412,2.1597,2.1662,2.1753,2.1882,2.1968,2.2058,2.2173,2.2256,2.2357,2.2431,2.2573,2.2664,2.2751,2.285,2.2878,2.2929,2.2951,2.2921,2.2914,2.2961,2.2962,2.2997,2.2997,2.2997,2.2997,0,2.1264,2.1391,2.1515,2.169,2.1736,2.1795,2.1944,2.201,2.2105,2.2208,2.224,2.2387,2.25,2.262,2.2772,2.283,2.2925,2.2955,2.2883,2.2895,2.2909,2.2906,2.2933,2.2943,2.2979,2.2978,2.2978,0,2.1258,2.1323,2.1506,2.1572,2.1653,2.1756,2.1832,2.1961,2.2036,2.2189,2.2236,2.2358,2.2463,2.2637,2.2756,2.2873,2.2907,2.2909,2.2925,2.2893,2.2909,2.2904,2.2911,2.2903,2.2902,2.2901,2.29,0,2.1235,2.1296,2.1405,2.1536,2.1626,2.1733,2.1845,2.1891,2.2042,2.212,2.224,2.2321,2.2479,2.2598,2.273,2.2811,2.288,2.2895,2.2906,2.2875,2.2831,2.2857,2.2869,2.2893,2.2894,2.2895,2.2895,2.2895,2.1199,2.1262,2.1402,2.152,2.1619,2.1721,2.1793,2.1899,2.2002,2.2144,2.2213,2.2332,2.246,2.2645,2.2725,2.2818,2.2839,2.2854,2.2858,2.286,2.2853,2.2816,2.2842,2.2842,2.2843,2.2843,2.2843,0,2.1182,2.1278,2.1386,2.1542,2.1634,2.1696,2.1823,2.1895,2.2,2.2116,2.2218,2.2355,2.2472,2.26,2.2724,2.2774,2.2809,2.2802,2.28,2.2818,2.2827,2.2806,2.2772,2.2772,2.2772,2.2772,2.2772,2.2772,2.1184,2.1294,2.1371,2.1531,2.1627,2.1748,2.1816,2.191,2.2004,2.2154,2.2254,2.2338,2.2459,2.2593,2.2702,2.2737,2.2777,2.2761,2.2805,2.2811,2.2817,2.2822,2.2803,2.2769,2.2769,2.2788,2.2789,2.2789]},{"header":{"parameterUnit":"m.s-1","parameterCategory":1,"la1":30.2991,"la2":30.254,"lo1":-89.0895,"lo2":-89.0444,"dy":0.0017,"dx":0.0017,"nx":28,"ny":28,"refTime":"2025-08-15T09:00:00:Z","depth":0,"parameterNumber":3,"parameterNumberName":"V-component_of_WINDS"},"data":[0,0,0,0,0,0,0,0,0,0,0,0,0,0,0,0,0,0,0,0,0,0,0,0,0,0,0,0,0,0,0,0,0,0,0,0,0,0,0,0,0,0,0,0,0,0,0,0,0,0,0,0,0,0,0,0,0,0,1.2639,1.264,0,1.2688,1.2689,1.2689,1.2701,1.2701,1.27,1.27,1.2747,1.2748,1.275,0,0,0,0,0,0,0,0,0,0,0,0,0,1.2552,1.2553,1.2639,1.264,1.264,1.2688,1.2689,1.2689,1.2701,1.2701,1.27,1.27,1.2746,1.2748,1.275,0,0,0,0,0,0,0,0,0,0,0,0,0,1.2594,1.2554,1.2639,1.2652,1.2654,1.2688,1.2689,1.2689,1.2701,1.2701,1.27,1.27,1.2746,1.2748,1.275,1.2774,0,0,1.2757,1.2758,0,0,0,0,0,0,0,0,1.2591,1.2597,1.2649,1.2651,1.2653,1.2688,1.2675,1.2718,1.2701,1.2683,1.27,1.27,1.2727,1.2731,1.2741,1.2776,1.2778,1.2758,1.2759,1.276,1.2761,0,0,0,0,0,0,0,1.2588,1.2595,1.2658,1.265,1.2652,1.2654,1.266,1.2683,1.2707,1.2685,1.2686,1.2691,1.2728,1.2739,1.2743,1.2779,1.2757,1.276,1.2761,1.2762,1.2836,1.2836,0,0,0,0,0,0,1.2584,1.2592,1.2657,1.266,1.2621,1.2656,1.2662,1.2677,1.2707,1.2711,1.2692,1.2692,1.2735,1.274,1.2744,1.2775,1.276,1.2762,1.2763,1.2835,1.2836,1.2836,0,0,0,0,0,0,1.2582,1.2589,1.2655,1.2626,1.2635,1.2658,1.2675,1.2678,1.2689,1.2712,1.2716,1.2699,1.2735,1.2741,1.2767,1.2777,1.2763,1.2765,1.2834,1.2835,1.2836,1.2836,0,0,0,0,0,0,1.2579,1.2589,1.2599,1.2627,1.2636,1.2678,1.2675,1.268,1.2694,1.2694,1.272,1.2724,1.2735,1.2763,1.2769,1.2779,1.2767,1.2834,1.2835,1.2836,1.2835,1.2836,1.2838,0,0,0,0,0,1.2576,1.2596,1.2599,1.2607,1.265,1.2678,1.2684,1.2698,1.2694,1.2704,1.2719,1.2723,1.2774,1.2766,1.2772,1.2784,1.2833,1.2834,1.2836,1.2834,1.2836,1.2838,0,0,0,0,0,0,1.2568,1.26,1.2604,1.2634,1.2653,1.268,1.2694,1.2699,1.2719,1.2719,1.2733,1.2739,1.2764,1.2776,1.2766,1.2808,1.2803,1.2806,1.28,1.2802,1.2803,1.2801,1.2769,0,0,0,0,0,1.257,1.2591,1.2617,1.2641,1.2651,1.267,1.2683,1.2692,1.2712,1.2721,1.2737,1.2756,1.2776,1.2789,1.2809,1.2836,1.2842,1.2847,1.2848,1.2849,1.2852,1.2867,1.287,1.2841,1.2841,1.2841,0,0,1.2573,1.2593,1.2606,1.264,1.2656,1.2677,1.2677,1.2699,1.2715,1.2723,1.275,1.2762,1.2784,1.2811,1.2823,1.2821,1.2861,1.2851,1.2851,1.2853,1.2869,1.2872,1.2874,1.2841,1.2841,1.2841,0,0,1.2592,1.2609,1.2631,1.2647,1.2672,1.2685,1.269,1.2716,1.2725,1.2751,1.2758,1.2776,1.2811,1.2826,1.2839,1.2861,1.2866,1.2867,1.2875,1.289,1.2892,1.2894,1.2904,1.2907,1.2869,1.2869,1.2869,0,1.2593,1.2627,1.2641,1.2663,1.2678,1.2687,1.2709,1.2723,1.2753,1.2762,1.276,1.2804,1.2819,1.285,1.2855,1.2864,1.2871,1.2865,1.2891,1.2893,1.2895,1.2904,1.2908,1.2869,1.2869,1.2869,1.2869,0,1.2627,1.265,1.2664,1.2695,1.271,1.2732,1.2749,1.2763,1.277,1.2782,1.2809,1.2827,1.2851,1.2858,1.2865,1.289,1.2888,1.2888,1.2884,1.2898,1.2907,1.291,1.2869,1.2869,1.2869,1.2869,0,0,1.2644,1.2681,1.2686,1.27,1.2727,1.2745,1.2766,1.2791,1.2803,1.2822,1.2841,1.2869,1.2869,1.2883,1.2891,1.2904,1.2922,1.2902,1.2903,1.2907,1.2952,1.2954,1.2957,1.2924,1.2925,1.2926,1.2951,0,1.2667,1.2708,1.2721,1.2754,1.2776,1.2784,1.2802,1.2821,1.2832,1.2851,1.2863,1.2884,1.2882,1.2891,1.2903,1.2917,1.2932,1.2915,1.2942,1.2943,1.2939,1.2962,1.2964,1.2987,1.2954,1.2954,1.2955,0,1.2699,1.2721,1.2757,1.2782,1.2792,1.2808,1.2832,1.285,1.287,1.2878,1.2893,1.29,1.2922,1.2915,1.2945,1.2934,1.2945,1.2953,1.2954,1.2959,1.2951,1.2969,1.2994,1.2998,1.296,1.296,1.2959,0,1.271,1.2747,1.2774,1.2785,1.2814,1.2826,1.2839,1.2859,1.2872,1.2892,1.2901,1.2923,1.2935,1.2951,1.2963,1.2956,1.2992,1.2986,1.3,1.3,1.3009,1.3008,1.3038,1.3013,1.3012,1.3012,1.3012,0,1.2735,1.2758,1.2779,1.2796,1.2821,1.2834,1.2858,1.287,1.2888,1.2907,1.2913,1.293,1.2944,1.2963,1.2972,1.2996,1.3001,1.3008,1.3011,1.3009,1.3008,1.3018,1.3017,1.3013,1.3013,1.3013,1.3013,0,1.2752,1.2768,1.2798,1.2823,1.2829,1.2847,1.2868,1.2884,1.2895,1.2918,1.2924,1.2942,1.2964,1.2978,1.3005,1.3011,1.3039,1.3039,1.3033,1.3034,1.3048,1.3047,1.3086,1.3093,1.3061,1.3061,1.3061,0,1.2769,1.2786,1.2813,1.2827,1.284,1.2861,1.2876,1.2889,1.2903,1.2927,1.294,1.2963,1.2982,1.3017,1.3032,1.3053,1.3055,1.3068,1.3059,1.3057,1.3058,1.3058,1.306,1.307,1.307,1.307,1.3071,0,1.2797,1.2804,1.2825,1.2849,1.2866,1.2885,1.2904,1.2914,1.293,1.2945,1.2969,1.2984,1.3012,1.3035,1.3057,1.3068,1.3073,1.3073,1.3078,1.3077,1.3073,1.3077,1.3039,1.3073,1.3072,1.3072,1.3072,1.3072,1.2816,1.2832,1.2854,1.2877,1.2892,1.291,1.2926,1.294,1.296,1.2985,1.299,1.3015,1.3034,1.3065,1.3077,1.3095,1.3094,1.31,1.3102,1.3104,1.3105,1.3068,1.3099,1.3099,1.3099,1.3099,1.3099,0,1.2846,1.286,1.2881,1.2908,1.2926,1.2928,1.2948,1.2963,1.2985,1.3003,1.3022,1.3048,1.307,1.3086,1.3108,1.312,1.3123,1.3126,1.3126,1.3129,1.3105,1.3099,1.3124,1.3124,1.3124,1.3124,1.3124,1.3124,1.2864,1.2892,1.2901,1.2936,1.2949,1.2975,1.2986,1.3002,1.3016,1.3046,1.3065,1.3075,1.3092,1.3115,1.3135,1.3139,1.3148,1.3151,1.3156,1.3133,1.313,1.3128,1.3123,1.3152,1.3152,1.3179,1.3179,1.3179]}]]